EUGENE Weather Reports


time (UTC)temp
C
wind
direction
speed
KPH
gust
KPH
rain 1hr
cm
rain 24hr
cm
rain mn
cm
humidity
%
barometer
mb
20260505195711 16 313 3.2 6.4 0.00 0.00 0.00 75 1016.6
20260505194212 15 322 1.6 6.4 0.00 0.00 0.00 76 1016.7
20260505192711 15 22 0.0 6.4 0.00 0.00 0.00 77 1016.7
20260505191212 15 326 0.0 0.0 0.00 0.00 0.00 77 1016.7
20260505185712 15 8 3.2 6.4 0.00 0.00 0.00 78 1016.6
20260505184211 15 88 0.0 4.8 0.00 0.00 0.00 79 1016.6
20260505182711 15 3 3.2 4.8 0.00 0.00 0.00 78 1016.5
20260505181211 14 110 0.0 1.6 0.00 0.00 0.00 78 1016.4
20260505175711 14 110 0.0 3.2 0.00 0.00 0.00 79 1016.4
20260505174211 14 111 0.0 1.6 0.00 0.00 0.00 79 1016.4
20260505172711 14 110 0.0 3.2 0.00 0.00 0.00 81 1016.4
20260505171211 14 124 0.0 3.2 0.00 0.00 0.00 82 1016.3
20260505165712 13 290 0.0 0.0 0.00 0.00 0.00 80 1016.3
20260505164211 13 288 0.0 3.2 0.00 0.00 0.00 80 1016.3
20260505162711 13 288 0.0 3.2 0.00 0.00 0.00 80 1016.3
20260505161211 13 290 3.2 3.2 0.00 0.00 0.00 81 1016.3
20260505152711 13 190 0.0 4.8 0.00 0.00 0.00 83 1016.3
20260505151211 13 213 0.0 3.2 0.00 0.00 0.00 83 1016.1
20260505124210 12 240 4.8 4.8 0.00 0.00 0.00 86 1015.4
20260505122710 12 254 1.6 4.8 0.00 0.00 0.00 86 1015.2
20260505121211 12 236 4.8 4.8 0.00 0.00 0.00 87 1015.0
20260505115711 12 288 0.0 6.4 0.00 0.00 0.00 87 1015.1
20260505114211 12 222 3.2 4.8 0.00 0.00 0.00 87 1015.1
20260505112711 12 268 0.0 4.8 0.00 0.00 0.00 88 1015.2
20260505111211 12 222 0.0 4.8 0.00 0.00 0.00 88 1015.2
20260505101211 12 228 3.2 8.0 0.00 0.00 0.00 87 1014.9
20260505095710 12 236 4.8 8.0 0.00 0.00 0.00 87 1014.9
20260505094210 12 230 0.0 6.4 0.00 0.00 0.00 87 1014.9
20260505092711 12 184 1.6 9.7 0.00 0.00 0.00 87 1014.8
20260505091211 12 224 3.2 4.8 0.00 0.00 0.00 86 1014.8
20260505085710 12 188 3.2 9.7 0.00 0.00 0.00 86 1014.7
20260505084211 12 223 0.0 8.0 0.00 0.00 0.00 86 1014.8
20260505082710 12 223 4.8 8.0 0.00 0.00 0.00 86 1014.9
20260505081210 12 228 0.0 4.8 0.00 0.00 0.00 86 1014.9
20260505075711 12 197 3.2 11.3 0.00 0.00 0.00 86 1014.9
20260505074210 12 237 0.0 11.3 0.00 0.00 0.00 85 1014.9
20260505072710 12 249 3.2 9.7 0.00 0.00 0.00 85 1014.9
20260505071211 12 232 4.8 9.7 0.00 0.00 0.00 85 1014.9
20260505065711 12 246 0.0 9.7 0.00 0.00 0.00 85 1014.8
20260505064210 13 215 4.8 12.9 0.00 0.00 0.00 85 1014.8
20260505062711 13 246 4.8 11.3 0.00 0.00 0.00 85 1014.7
20260505061210 13 250 1.6 12.9 0.00 0.00 0.00 84 1014.7
20260505055710 13 234 3.2 9.7 0.00 0.00 0.00 84 1014.7
20260505054210 13 225 4.8 12.9 0.00 0.00 0.00 84 1014.6
20260505052711 13 273 4.8 14.5 0.00 0.00 0.00 83 1014.5
20260505051210 13 205 6.4 16.1 0.00 0.00 0.00 84 1014.5
20260505041210 12 209 3.2 9.7 0.00 0.00 0.00 85 1013.8
20260505035711 13 217 0.0 9.7 0.00 0.00 0.00 84 1013.6
20260505034211 13 229 1.6 11.3 0.00 0.00 0.00 83 1013.5
20260505032710 13 238 9.7 17.7 0.00 0.00 0.00 82 1013.2
20260505031210 14 243 9.7 16.1 0.00 0.00 0.00 81 1013.1
20260505025710 14 233 9.7 16.1 0.00 0.00 0.00 80 1012.7
20260505024211 15 262 11.3 20.9 0.00 0.00 0.00 78 1012.5
20260505022710 15 215 1.6 17.7 0.00 0.00 0.00 77 1012.3
20260505021210 16 263 6.4 20.9 0.00 0.00 0.00 75 1012.3
20260505015710 17 255 16.1 20.9 0.00 0.00 0.00 72 1012.3
20260505014210 17 255 16.1 22.5 0.00 0.00 0.00 71 1012.3
20260505012710 18 164 9.7 16.1 0.00 0.00 0.00 70 1012.2
20260505011210 18 174 4.8 22.5 0.00 0.00 0.00 70 1012.3
20260505005710 18 258 8.0 14.5 0.00 0.00 0.00 69 1012.4
20260505004210 19 257 14.5 20.9 0.00 0.00 0.00 69 1012.4
20260505002710 20 235 9.7 20.9 0.00 0.00 0.00 69 1012.2
20260505001210 20 239 12.9 19.3 0.00 0.00 0.00 68 1012.2
20260504235710 20 268 11.3 16.1 0.00 0.00 0.00 68 1012.3
20260504234210 20 222 16.1 16.1 0.00 0.00 0.00 68 1012.3
20260504232710 20 190 4.8 19.3 0.00 0.00 0.00 68 1012.4
20260504231210 20 228 12.9 17.7 0.00 0.00 0.00 69 1012.5
20260504225710 20 225 8.0 16.1 0.00 0.00 0.00 68 1012.7
20260504224210 20 191 8.0 19.3 0.00 0.00 0.00 68 1012.8
20260504222710 20 289 14.5 16.1 0.00 0.00 0.00 67 1013.0
20260504221210 20 199 9.7 16.1 0.00 0.00 0.00 67 1013.2
20260504215710 19 268 6.4 17.7 0.00 0.00 0.00 69 1013.3
20260504214210 19 247 4.8 9.7 0.00 0.00 0.00 67 1013.4
20260504212710 18 226 3.2 8.0 0.00 0.00 0.00 71 1013.5
20260504211210 19 252 9.7 14.5 0.00 0.00 0.00 69 1013.6
20260504205710 18 199 1.6 9.7 0.00 0.00 0.00 73 1013.7
20260504204210 17 184 1.6 8.0 0.00 0.00 0.00 74 1013.9
20260504202709 17 185 3.2 9.7 0.00 0.00 0.00 75 1013.9
20260504201210 16 226 4.8 8.0 0.00 0.00 0.00 74 1014.0